�N����,����,�~����,�C��,���x,�C��,����,���ϕ���,�ő�u�ԕ���,�ő厞����,���˗�,�I�_���x,�n�����x,�ő啗���N��,DTYPE
"17/05/26","00:10",0.0,18.0,92.1,998.9,287.5,0.8,1.3,302.2,0.00,16.7,20.1,"00:08:40",1
"17/05/26","00:20",0.0,18.1,92.2,998.6,318.6,1.1,1.6,324.5,0.00,16.9,20.2,"00:15:36",1
"17/05/26","00:30",0.0,18.3,92.4,998.6,332.0,1.2,1.9,331.4,0.00,17.1,20.2,"00:25:20",1
"17/05/26","00:40",0.0,18.2,92.3,998.4,309.7,1.1,1.6,325.5,0.00,17.0,20.0,"00:32:32",1
"17/05/26","00:50",0.0,18.2,92.3,998.4,297.9,1.0,1.3,273.7,0.00,17.0,20.0,"00:42:08",1
"17/05/26","01:00",0.0,18.3,92.1,998.6,306.0,1.0,1.4,314.8,0.00,17.0,20.0,"00:52:16",1
"17/05/26","01:10",0.0,18.5,92.1,998.2,332.1,1.2,2.0,334.6,0.00,17.2,20.0,"01:02:32",1
"17/05/26","01:20",0.0,18.5,91.9,998.4,309.9,1.1,1.7,325.5,0.00,17.2,20.2,"01:15:28",1
"17/05/26","01:30",0.0,18.5,91.9,997.7,292.5,1.0,1.6,315.8,0.00,17.2,19.9,"01:27:44",1
"17/05/26","01:40",0.0,18.6,91.7,997.9,300.4,0.8,1.7,331.6,0.00,17.3,19.9,"01:30:40",1
"17/05/26","01:50",0.0,18.7,91.7,997.9,331.1,1.3,1.8,349.7,0.00,17.4,20.0,"01:42:32",1
"17/05/26","02:00",0.0,18.5,91.7,997.9,307.3,1.1,1.8,320.6,0.00,17.2,20.2,"01:52:40",1
"17/05/26","02:10",0.0,18.5,91.7,998.2,288.0,0.8,1.3,289.8,0.00,17.2,20.0,"02:04:16",1
"17/05/26","02:20",0.2,18.5,91.6,998.2,278.1,0.8,1.4,270.6,0.00,17.1,19.9,"02:16:08",1
"17/05/26","02:30",0.0,18.7,91.3,997.9,309.5,1.1,1.6,305.9,0.00,17.3,19.9,"02:25:36",1
"17/05/26","02:40",0.0,18.8,91.0,998.2,308.6,1.1,1.9,322.6,0.00,17.3,19.9,"02:39:12",1
"17/05/26","02:50",0.0,18.8,91.0,997.9,329.5,1.6,2.0,337.0,0.00,17.3,19.8,"02:49:04",1
"17/05/26","03:00",0.0,18.8,91.2,997.9,324.8,1.2,1.8,335.4,0.00,17.4,19.8,"02:50:16",1
"17/05/26","03:10",0.0,18.7,91.3,997.7,298.6,1.0,1.2,305.8,0.00,17.3,19.7,"03:00:08",1
"17/05/26","03:20",0.0,18.7,91.4,997.4,277.4,0.8,1.1,298.5,0.00,17.3,19.5,"03:11:04",1
"17/05/26","03:30",0.0,18.7,91.6,997.7,319.2,1.5,2.7,341.8,0.00,17.3,19.9,"03:27:04",1
"17/05/26","03:40",0.0,18.6,92.1,997.4,312.9,1.3,2.0,314.3,0.00,17.3,19.7,"03:30:08",1
"17/05/26","03:50",0.0,18.4,92.5,997.2,294.2,1.3,2.1,319.3,0.00,17.2,19.8,"03:40:16",1
"17/05/26","04:00",0.0,18.4,92.8,997.4,306.8,1.2,1.8,319.6,0.00,17.3,19.7,"03:56:16",1
"17/05/26","04:10",0.0,18.4,93.2,997.7,303.5,1.3,1.9,308.1,0.00,17.3,19.9,"04:04:32",1
"17/05/26","04:20",0.0,18.4,93.3,997.7,290.8,1.3,2.1,323.3,0.00,17.3,19.8,"04:11:20",1
"17/05/26","04:30",0.0,18.4,93.6,997.0,318.6,1.1,1.6,324.5,0.00,17.4,19.8,"04:28:24",1
"17/05/26","04:40",0.0,18.4,93.6,997.4,305.9,1.5,2.0,324.8,0.00,17.4,19.7,"04:33:36",1
"17/05/26","04:50",0.0,18.3,93.7,997.4,282.9,1.1,1.4,314.6,0.00,17.3,19.8,"04:43:36",1
"17/05/26","05:00",0.0,18.3,93.9,997.0,280.6,1.1,1.4,290.1,0.00,17.3,19.6,"04:50:24",1
"17/05/26","05:10",0.0,18.2,93.9,997.2,298.6,1.3,1.9,312.6,0.00,17.2,19.7,"05:03:20",1
"17/05/26","05:20",0.0,18.3,94.1,997.4,318.9,1.5,2.1,321.7,0.00,17.4,19.7,"05:14:32",1
"17/05/26","05:30",0.0,18.3,94.3,997.0,296.7,1.1,1.8,328.1,0.00,17.4,19.6,"05:20:16",1
"17/05/26","05:40",0.0,18.4,94.3,997.0,311.1,1.2,1.6,317.1,0.00,17.5,19.6,"05:34:08",1
"17/05/26","05:50",0.0,18.5,94.3,997.2,284.6,1.1,1.3,316.0,0.00,17.6,19.6,"05:40:40",1
"17/05/26","06:00",0.0,18.5,94.3,997.4,305.1,1.2,1.9,318.1,0.00,17.6,19.6,"05:51:12",1
"17/05/26","06:10",0.0,18.7,94.4,997.0,303.8,1.5,1.9,316.3,0.00,17.8,19.8,"06:04:00",1
"17/05/26","06:20",0.0,18.8,94.4,997.2,307.3,1.1,1.4,320.3,0.01,17.9,19.6,"06:11:52",1
"17/05/26","06:30",0.0,19.0,94.2,997.2,293.1,0.5,0.8,287.5,0.02,18.1,19.5,"06:28:00",1
"17/05/26","06:40",0.0,18.9,93.8,997.2,310.2,1.3,2.4,330.4,0.03,17.9,19.6,"06:36:32",1
"17/05/26","06:50",0.0,19.2,93.9,997.4,299.8,1.1,1.8,313.2,0.02,18.2,19.6,"06:40:08",1
"17/05/26","07:00",0.0,19.3,93.5,997.2,311.7,1.0,2.0,318.7,0.04,18.3,19.6,"06:53:04",1
"17/05/26","07:10",0.0,19.6,93.3,997.2,287.9,1.0,1.4,298.2,0.07,18.5,19.7,"07:08:08",1
"17/05/26","07:20",0.0,19.8,92.3,997.4,308.4,0.7,1.2,333.9,0.04,18.6,19.8,"07:17:12",1
"17/05/26","07:30",0.0,19.9,91.5,997.4,305.9,0.8,1.4,320.3,0.02,18.5,19.9,"07:22:08",1
"17/05/26","07:40",0.0,20.0,91.0,997.7,300.7,0.8,1.2,323.5,0.01,18.5,19.8,"07:38:48",1
"17/05/26","07:50",0.0,20.2,90.6,997.4,340.5,0.6,1.2,335.9,0.05,18.7,19.8,"07:42:08",1
"17/05/26","08:00",0.0,21.0,87.3,997.4,314.4,0.7,1.2,326.4,0.13,18.8,20.1,"07:50:32",1
"17/05/26","08:10",0.0,21.6,84.5,997.2,253.0,0.1,0.5,256.3,0.14,18.9,20.2,"08:07:04",1
"17/05/26","08:20",0.0,21.7,82.2,997.4,260.1,0.3,1.3,246.1,0.08,18.6,20.2,"08:19:44",1
"17/05/26","08:30",0.0,21.4,83.8,997.7,236.9,1.0,2.2,239.3,0.10,18.6,20.1,"08:26:56",1
"17/05/26","08:40",0.2,22.3,79.3,997.2,283.6,0.5,1.7,239.2,0.20,18.6,20.3,"08:30:16",1
"17/05/26","08:50",0.0,23.6,76.2,997.0,196.2,0.6,1.3,144.5,0.37,19.2,20.5,"08:48:24",1
"17/05/26","09:00",0.0,24.1,74.6,997.0,121.8,0.6,1.8,80.4,0.41,19.3,20.7,"08:54:48",1
"17/05/26","09:10",0.0,24.0,71.3,997.2,331.9,0.8,2.5,350.3,0.45,18.5,21.0,"09:08:00",1
"17/05/26","09:20",0.0,24.4,72.2,996.5,85.6,0.8,1.7,6.2,0.38,19.1,21.2,"09:14:00",1
"17/05/26","09:30",0.0,23.2,73.9,996.3,73.0,0.8,2.2,56.5,0.12,18.3,21.5,"09:25:44",1
"17/05/26","09:40",0.0,23.5,75.7,996.5,210.3,0.6,1.9,202.6,0.15,19.0,21.3,"09:31:44",1
"17/05/26","09:50",0.0,24.4,71.0,995.8,181.0,0.7,1.9,197.0,0.33,18.8,21.8,"09:46:24",1
"17/05/26","10:00",0.0,24.9,70.6,996.0,258.8,0.6,1.7,316.2,0.29,19.2,21.8,"09:53:28",1
"17/05/26","10:10",0.0,24.5,70.2,995.6,166.9,0.8,1.6,167.2,0.24,18.8,22.0,"10:01:36",1
"17/05/26","10:20",0.0,25.3,69.3,995.6,208.3,1.5,4.0,197.6,0.44,19.3,22.2,"10:18:24",1
"17/05/26","10:30",0.0,26.0,63.4,995.1,186.8,1.3,3.6,194.7,0.59,18.6,22.2,"10:27:28",1
"17/05/26","10:40",0.0,26.3,66.0,994.6,171.0,1.2,3.9,210.6,0.48,19.5,22.6,"10:30:02",1
"17/05/26","10:50",0.0,26.4,64.2,994.6,181.8,2.0,4.1,217.4,0.62,19.1,22.9,"10:42:08",1
"17/05/26","11:00",0.0,27.0,61.5,995.1,163.6,1.8,4.1,137.5,0.60,19.0,23.3,"10:50:56",1
"17/05/26","11:10",0.0,27.2,63.3,994.8,148.3,1.2,2.6,113.7,0.59,19.7,23.6,"11:02:00",1
"17/05/26","11:20",0.0,27.3,62.2,995.1,169.5,1.8,3.4,153.9,0.62,19.5,24.0,"11:11:52",1
"17/05/26","11:30",0.0,28.0,56.4,994.8,178.2,1.5,4.0,219.0,0.63,18.6,24.0,"11:22:32",1
"17/05/26","11:40",0.0,28.3,58.6,995.1,159.1,1.3,3.1,169.8,0.64,19.5,24.5,"11:31:44",1
"17/05/26","11:50",0.0,27.2,57.1,995.1,127.2,1.2,3.9,172.4,0.42,18.0,24.5,"11:40:56",1
"17/05/26","12:00",0.0,28.2,54.2,994.8,124.6,1.5,3.5,120.8,0.57,18.1,24.8,"11:51:28",1
"17/05/26","12:10",0.0,27.4,58.0,994.4,155.5,1.5,3.5,158.4,0.30,18.4,25.0,"12:05:28",1
"17/05/26","12:20",0.0,27.9,50.9,994.4,175.9,2.5,4.4,200.6,0.54,16.8,25.2,"12:18:48",1
"17/05/26","12:30",0.0,27.4,51.8,994.4,174.6,1.8,4.0,161.5,0.31,16.7,25.2,"12:20:40",1
"17/05/26","12:40",0.0,28.9,46.8,994.1,194.1,2.2,4.8,225.8,0.66,16.4,25.1,"12:32:40",1
"17/05/26","12:50",0.0,28.4,49.2,994.4,179.4,2.5,4.3,225.0,0.40,16.8,25.5,"12:40:08",1
"17/05/26","13:00",0.0,28.6,47.0,994.1,182.2,3.2,6.2,204.3,0.65,16.2,25.4,"12:56:00",1
"17/05/26","13:10",0.0,27.9,47.5,993.7,197.9,2.8,6.6,227.5,0.44,15.8,25.1,"13:02:56",1
"17/05/26","13:20",0.0,28.8,44.3,994.1,208.4,2.5,6.0,213.9,0.48,15.5,25.1,"13:13:12",1
"17/05/26","13:30",0.2,28.7,42.3,993.9,200.7,3.1,5.4,229.5,0.50,14.7,25.0,"13:25:04",1
"17/05/26","13:40",0.0,28.6,41.0,993.7,189.4,3.5,6.6,192.4,0.60,14.1,25.1,"13:38:48",1
"17/05/26","13:50",0.0,28.6,40.2,993.9,194.3,3.7,7.1,229.0,0.57,13.8,24.9,"13:44:48",1
"17/05/26","14:00",0.0,28.7,40.1,993.7,187.6,3.4,5.1,184.0,0.55,13.9,25.0,"13:56:24",1
"17/05/26","14:10",0.0,28.2,43.0,993.7,212.3,3.0,6.0,221.7,0.38,14.5,24.8,"14:01:36",1
"17/05/26","14:20",0.0,28.8,42.2,993.7,224.5,2.5,7.8,216.5,0.52,14.7,25.0,"14:15:52",1
"17/05/26","14:30",0.0,28.9,38.5,993.9,185.0,3.0,6.6,197.2,0.52,13.4,24.8,"14:27:36",1
"17/05/26","14:40",0.0,29.0,35.6,993.9,185.9,2.8,5.2,209.5,0.52,12.3,25.1,"14:39:04",1
"17/05/26","14:50",0.0,29.6,35.5,993.9,280.5,1.6,3.9,246.4,0.51,12.8,25.2,"14:44:08",1
"17/05/26","15:00",0.0,29.0,36.9,993.9,303.4,1.7,3.9,321.0,0.38,12.8,25.1,"14:52:00",1
"17/05/26","15:10",0.0,29.1,34.4,993.9,237.9,1.8,5.7,225.6,0.46,11.9,25.3,"15:06:08",1
"17/05/26","15:20",0.0,29.6,34.0,993.9,233.1,1.8,5.5,229.5,0.45,12.1,25.3,"15:14:08",1
"17/05/26","15:30",0.0,28.1,49.3,993.9,340.7,2.3,8.0,359.4,0.43,16.5,25.2,"15:22:48",1
"17/05/26","15:40",0.0,27.8,50.3,993.9,347.6,2.8,5.6,341.0,0.41,16.6,25.3,"15:35:12",1
"17/05/26","15:50",0.0,27.9,51.4,993.7,3.3,2.5,5.4,26.6,0.39,17.0,25.2,"15:42:24",1
"17/05/26","16:00",0.0,28.1,43.1,993.9,324.9,2.6,4.5,346.0,0.36,14.4,25.2,"15:56:16",1
"17/05/26","16:10",0.0,27.5,49.6,993.7,338.3,3.2,5.6,329.2,0.34,16.1,25.2,"16:01:28",1
"17/05/26","16:20",0.0,27.7,47.5,994.1,2.2,2.1,5.5,351.9,0.35,15.6,25.2,"16:15:28",1
"17/05/26","16:30",0.0,27.2,51.9,994.4,330.3,2.3,4.9,336.9,0.31,16.5,25.1,"16:24:24",1
"17/05/26","16:40",0.0,25.8,54.4,995.1,330.7,2.8,5.2,330.3,0.28,15.9,25.1,"16:38:00",1
"17/05/26","16:50",0.0,24.5,59.8,995.6,337.7,2.7,5.8,332.7,0.19,16.2,25.1,"16:42:24",1
"17/05/26","17:00",0.0,23.7,60.8,995.8,338.8,3.7,7.8,326.9,0.25,15.7,25.0,"16:54:48",1
"17/05/26","17:10",0.0,22.8,60.3,996.5,347.9,4.1,10.9,327.4,0.12,14.8,24.9,"17:04:40",1
"17/05/26","17:20",0.0,21.8,63.1,996.7,351.9,4.1,8.2,342.7,0.08,14.5,24.6,"17:12:08",1
"17/05/26","17:30",0.0,20.9,66.0,997.4,351.0,4.1,7.4,346.9,0.07,14.4,24.6,"17:20:56",1
"17/05/26","17:40",0.0,20.3,68.2,997.7,352.2,3.7,8.9,19.3,0.04,14.3,24.4,"17:33:28",1
"17/05/26","17:50",0.0,20.2,69.2,997.7,348.2,4.1,7.3,353.5,0.05,14.4,24.1,"17:44:40",1
"17/05/26","18:00",0.0,19.9,69.5,998.2,339.1,3.9,8.1,334.0,0.03,14.2,24.1,"17:59:20",1
"17/05/26","18:10",0.0,19.4,70.5,998.4,339.1,3.5,6.8,350.3,0.01,13.9,23.8,"18:09:36",1
"17/05/26","18:20",0.0,19.0,72.1,998.6,340.5,3.7,7.5,346.0,0.00,13.9,23.7,"18:14:00",1
"17/05/26","18:30",0.0,18.7,72.5,998.9,335.5,4.1,9.1,327.5,0.00,13.7,23.4,"18:24:24",1
"17/05/26","18:40",0.0,18.5,73.0,999.3,336.0,4.5,8.1,331.2,0.00,13.6,23.4,"18:31:20",1
"17/05/26","18:50",0.0,18.3,73.9,999.3,336.4,3.5,7.1,331.1,0.00,13.6,23.0,"18:41:28",1
"17/05/26","19:00",0.0,18.2,73.6,999.6,332.2,4.7,8.9,339.0,0.00,13.5,23.0,"18:51:12",1
"17/05/26","19:10",0.0,18.0,74.0,999.6,339.3,4.0,6.8,342.5,0.00,13.3,22.7,"19:03:12",1
"17/05/26","19:20",0.0,17.9,74.1,1000.0,326.5,4.0,7.0,315.3,0.00,13.3,22.6,"19:15:04",1
"17/05/26","19:30",0.0,17.7,74.4,1000.0,330.6,4.4,8.0,317.7,0.00,13.1,22.5,"19:25:28",1
"17/05/26","19:40",0.0,17.6,74.3,1000.3,334.2,5.0,8.5,342.1,0.00,13.0,22.3,"19:35:12",1
"17/05/26","19:50",0.0,17.5,74.6,1000.3,333.7,4.0,6.8,333.8,0.00,13.0,22.2,"19:47:52",1
"17/05/26","20:00",0.0,17.4,75.2,1000.8,337.0,4.4,10.1,317.2,0.00,13.0,22.1,"19:55:28",1
"17/05/26","20:10",0.0,17.2,74.9,1000.5,332.2,4.4,9.5,333.0,0.00,12.8,21.9,"20:02:16",1
"17/05/26","20:20",0.0,17.1,75.1,1001.0,334.0,5.0,8.5,345.5,0.00,12.7,21.9,"20:11:04",1
"17/05/26","20:30",0.0,17.1,74.8,1000.8,336.7,4.1,7.4,332.0,0.00,12.6,21.7,"20:20:24",1
"17/05/26","20:40",0.0,17.0,74.6,1001.0,330.7,4.6,9.1,335.2,0.00,12.5,21.3,"20:30:48",1
"17/05/26","20:50",0.0,16.9,74.4,1001.2,331.1,4.1,8.0,337.2,0.00,12.4,21.4,"20:48:40",1
"17/05/26","21:00",0.0,16.8,74.4,1001.7,333.4,4.4,7.8,325.9,0.00,12.3,21.2,"20:58:16",1
"17/05/26","21:10",0.0,16.9,74.2,1001.7,334.1,3.4,6.0,332.7,0.00,12.3,21.2,"21:04:32",1
"17/05/26","21:20",0.0,16.9,73.6,1001.9,331.4,4.0,6.2,322.9,0.00,12.2,21.1,"21:13:28",1
"17/05/26","21:30",0.0,16.9,72.9,1001.9,331.4,3.6,7.1,320.0,0.00,12.1,21.0,"21:25:12",1
"17/05/26","21:40",0.0,16.9,72.9,1001.9,334.6,3.4,6.5,319.2,0.00,12.1,20.8,"21:33:20",1
"17/05/26","21:50",0.0,16.9,72.5,1002.2,330.1,3.2,6.2,331.5,0.00,12.0,20.7,"21:43:44",1
"17/05/26","22:00",0.0,16.8,72.1,1002.4,329.1,2.8,5.8,321.5,0.00,11.8,20.7,"21:58:56",1
"17/05/26","22:10",0.2,16.8,72.1,1002.9,330.6,2.3,4.5,332.5,0.00,11.8,20.7,"22:06:52",1
"17/05/26","22:20",0.0,16.8,72.9,1002.6,337.5,2.2,4.3,311.6,0.00,12.0,20.7,"22:18:48",1
"17/05/26","22:30",0.0,16.7,73.0,1002.9,336.7,2.6,4.7,334.7,0.00,11.9,20.6,"22:24:08",1
"17/05/26","22:40",0.0,16.6,71.9,1003.1,330.5,3.2,5.8,338.2,0.00,11.6,20.4,"22:37:28",1
"17/05/26","22:50",0.0,16.6,72.0,1003.1,333.5,2.3,5.2,336.7,0.00,11.6,20.4,"22:48:56",1
"17/05/26","23:00",0.0,16.4,72.4,1002.9,338.9,1.7,3.3,337.6,0.00,11.5,20.4,"22:50:56",1
"17/05/26","23:10",0.0,16.5,72.0,1002.9,353.1,2.0,4.2,336.7,0.00,11.5,20.3,"23:06:40",1
"17/05/26","23:20",0.0,16.5,70.6,1002.9,356.9,2.1,5.8,343.8,0.00,11.2,20.1,"23:19:36",1
"17/05/26","23:30",0.0,16.5,70.2,1002.9,344.0,2.2,3.9,339.0,0.00,11.1,20.3,"23:23:52",1
"17/05/26","23:40",0.0,16.5,69.8,1003.1,350.6,1.6,3.1,324.0,0.00,11.0,20.2,"23:32:08",1
"17/05/26","23:50",0.0,16.5,68.5,1002.9,343.4,1.8,3.5,350.4,0.00,10.7,20.0,"23:43:28",1
"17/05/26","24:00",0.0,16.5,67.5,1002.9,338.8,2.1,4.5,327.8,0.00,10.5,20.0,"23:58:48",1
